Weather in Leiden

Netherlands     52°09′36″N   4°28′55″E
temp.,
°C
wind,
m/s
gust,
m/s
humid.,
%
clouds,
%
prec.,
mm/h
press.,
hPa
HPBL,
m
20 june, sun
sun2023:00+15ne4889100 0.3 1011297
02:00+15e5119797 8.0 1007466
05:00+14n9119478 6.1 1006565
08:00+14n34855 6.1 1008361
11:00+16wnw3376100 0.0 1009487
14:00+17nnw327596 0.0 1010524
17:00+17nnw437399 0.0 1009445
20:00+18ne567473 0.0 1009458
21 june, mon
mon2123:00+15nne698527 0.0 1009365
02:00+14ne61084100 0.0 1010442
05:00+13ne61185100 0.1 1009493
08:00+14ne6981100 0.1 1010588
11:00+14ne5890100 2.3 1011660
14:00+14ne5894100 8.8 1012498
17:00+14ne6890100 1.3 1013594
20:00+14ne6886100 1.3 1014644
22 june, tue
tue2223:00+13ne5980100 0.0 1016692
02:00+13ne5980100 0.0 1016679
05:00+12ne4981100 0.0 1016567
08:00+13ne6976100 0.0 1017776
11:00+16nne6760100 0.0 10181028
14:00+17nne775793 0.0 10181095
17:00+17n88588 0.0 10181047
20:00+15nne776396 0.0 1019956
23 june, wed
wed2323:00+14nne5771100 0.0 1020793
02:00+13nne5873100 0.0 1020672
05:00+13nne4674100 0.0 1020569
08:00+14nne4572100 0.0 1021667
11:00+14nne3470100 0.1 1021841
14:00+15nne3468100 0.1 1021864
17:00+15nne446984 0.0 1021707
20:00+15n4570100 0.0 1021549
24 june, thu
thu2423:00+14nne4676100 0.0 1021467
02:00+14ne358097 0.0 1021325
05:00+13nne238394 0.0 1021201
08:00+14nne347848 0.0 1021429
11:00+16nnw336844 0.0 1021687
14:00+16nw54676 0.0 1021672
17:00+16nnw44635 0.0 1021539
20:00+16nnw34615 0.0 1021418